Anderson, SC

8:07 AM EDT on March 23, 2017 (GMT -0400)
Anderson Regional

Weather History for KAND - December, 2012

Change the Weather History Date:

Wednesday, December 26, 2012

  Actual Average Record
Temperature  
Mean Temperature 50 °F -  
Max Temperature 60 °F 50 °F 75 °F (2015)
Min Temperature 37 °F 32 °F -3 °F (1983)
Degree Days  
Heating Degree Days 16    
Moisture  
Dew Point 44 °F    
Average Humidity 84    
Maximum Humidity 100    
Minimum Humidity 65    
Precipitation  
Precipitation 1.19 in - - ()
Sea Level Pressure  
Sea Level Pressure 29.64 in    
Wind  
Wind Speed 14 mph (SW)    
Max Wind Speed 25 mph    
Max Gust Speed 39 mph    
Visibility 8 miles    
Events Rain , Snow , Thunderstorm    
Averages and records for this station are not official NWS values.
T = Trace of Precipitation, MM = Missing Value Source: NWS Daily Summary

Daily Weather History Graph

Daily Weather History Graph

Search for Another Location

Airport or City:

Trip Planner

Search our weather history database for the weather conditions in past years. The results will help you decide how hot, cold, wet, or windy it might be!

Date:

Astronomy

Dec. 26, 2012 Rise Set
Actual Time 7:35 AM EST 5:27 PM EST
Civil Twilight 7:08 AM EST 5:55 PM EST
Nautical Twilight 6:36 AM EST 6:26 PM EST
Astronomical Twilight 6:05 AM EST 6:57 PM EST
Moon 4:19 PM EST (12/26) 5:59 AM EST (12/26)
Length of Visible Light 10h 47m
Length of Day
9h 51m
Waxing Gibbous, 97% of the Moon is Illuminated
Dec 26
Waxing Gibbous
Dec 28
Full
Jan 4
Last Quarter
Jan 11
New
Jan 18
First Quarter

Hourly Weather History & Observations

Time (EST) Temp. Windchill Dew Point Humidity Pressure Visibility Wind Dir Wind Speed Gust Speed Precip Events Conditions
12:16 AM 48.2 °F - 48.2 °F 100% 29.84 in 8.0 mi East 13.8 mph 20.7 mph N/A   Overcast
12:56 AM 48.9 °F - 48.9 °F 100% 29.83 in 4.0 mi East 15.0 mph - 0.13 in Rain Heavy Rain
1:20 AM 48.2 °F - 48.2 °F 100% 29.82 in 4.0 mi East 10.4 mph - 0.11 in Rain Heavy Rain
1:56 AM 48.9 °F - 48.9 °F 100% 29.78 in 3.0 mi ENE 12.7 mph - 0.30 in Rain Heavy Rain
2:56 AM 50.0 °F - 50.0 °F 100% 29.73 in 5.0 mi ENE 13.8 mph 21.9 mph 0.31 in Rain Rain
4:56 AM 51.1 °F - 51.1 °F 100% 29.59 in 4.0 mi East 16.1 mph - 0.21 in Rain Heavy Rain
5:36 AM 53.6 °F - 51.8 °F 94% 29.56 in 10.0 mi East 11.5 mph 26.5 mph 0.12 in   Overcast
5:51 AM 53.6 °F - 53.6 °F 100% 29.57 in 4.0 mi East 4.6 mph - 0.22 in Rain , Thunderstorm Heavy Rain
5:56 AM 53.1 °F - 53.1 °F 100% 29.57 in 4.0 mi ESE 6.9 mph - 0.23 in Rain , Thunderstorm Rain
6:10 AM 53.6 °F - 53.6 °F 100% 29.59 in 4.0 mi WNW 8.1 mph - 0.03 in Rain Rain
7:56 AM 59.0 °F - 57.9 °F 96% 29.51 in 10.0 mi SSE 10.4 mph - N/A   Overcast
8:23 AM 57.2 °F - 57.2 °F 100% 29.51 in 10.0 mi South 10.4 mph - N/A   Scattered Clouds
8:56 AM 59.0 °F - 57.0 °F 93% 29.53 in 10.0 mi SSW 9.2 mph - N/A   Scattered Clouds
9:26 AM 60.8 °F - 55.4 °F 82% 29.53 in 10.0 mi SSW 15.0 mph - N/A   Mostly Cloudy
9:40 AM 59.0 °F - 53.6 °F 82% 29.53 in 10.0 mi SSW 18.4 mph 25.3 mph N/A   Scattered Clouds
9:56 AM 59.0 °F - 52.0 °F 78% 29.52 in 10.0 mi SSW 15.0 mph 25.3 mph N/A   Clear
10:56 AM 57.0 °F - 46.0 °F 67% 29.53 in 10.0 mi SW 15.0 mph 24.2 mph N/A   Partly Cloudy
11:56 AM 55.0 °F - 46.9 °F 74% 29.53 in 9.0 mi SW 20.7 mph 31.1 mph N/A   Overcast
12:52 PM 44.6 °F 35.9 °F 42.8 °F 93% 29.56 in 6.0 mi West 23.0 mph 35.7 mph 0.01 in   Overcast
12:56 PM 45.0 °F 37.6 °F 42.1 °F 90% 29.56 in 8.0 mi West 17.3 mph 29.9 mph 0.01 in   Overcast
1:43 PM 46.4 °F 39.8 °F 39.2 °F 76% 29.56 in 10.0 mi WSW 16.1 mph 27.6 mph N/A   Overcast
1:56 PM 48.0 °F - 37.9 °F 68% 29.56 in 10.0 mi WSW 21.9 mph 33.4 mph N/A   Mostly Cloudy
2:56 PM 46.0 °F 38.8 °F 36.0 °F 68% 29.59 in 10.0 mi West 18.4 mph 31.1 mph N/A   Overcast
3:56 PM 44.1 °F 34.8 °F 33.1 °F 65% 29.60 in 10.0 mi WSW 25.3 mph 39.1 mph N/A   Partly Cloudy
4:56 PM 42.1 °F 34.2 °F 33.1 °F 70% 29.63 in 10.0 mi WSW 16.1 mph 26.5 mph N/A   Partly Cloudy
5:56 PM 39.9 °F 31.1 °F 33.1 °F 77% 29.67 in 10.0 mi WSW 17.3 mph 28.8 mph N/A   Scattered Clouds
6:56 PM 39.9 °F 30.0 °F 32.0 °F 73% 29.71 in 10.0 mi West 21.9 mph 28.8 mph N/A   Clear
7:56 PM 39.9 °F 30.2 °F 30.0 °F 68% 29.74 in 10.0 mi West 20.7 mph 32.2 mph N/A   Scattered Clouds
8:56 PM 39.0 °F 29.0 °F 30.0 °F 70% 29.76 in 10.0 mi West 20.7 mph 27.6 mph N/A   Mostly Cloudy
9:56 PM 39.0 °F 29.3 °F 28.9 °F 67% 29.80 in 10.0 mi WNW 19.6 mph 27.6 mph N/A   Overcast
10:56 PM 39.0 °F 30.3 °F 28.0 °F 65% 29.81 in 10.0 mi West 16.1 mph - N/A   Scattered Clouds
11:56 PM 37.9 °F 30.5 °F 28.0 °F 68% 29.82 in 9.0 mi West 11.5 mph - 0.00 in Snow Light Snow